When you browse on this site, cookies collect data to enhance your experience and personalize the content and advertising you see.
Visit our Privacy Policy to learn more. By continuing to use the site, you agree to this use of cookies and data.
  • In Romania
  • List of Countries
  • For 7 days
  • Water Temperature
  • Weather Map
  • Weather Widgets
  • user-avatar
    Login

    Hourly Weather Ordino

    Today, 5 June, Friday

    Time Temperature Precipitation Wind Pressure Humidity
    00:00 +4°C° 0 mm 2 mps 625 mmHg 93%
    01:00 +4°C° 0 mm 2 mps 625 mmHg 93%
    02:00 +4°C° 0 mm 2 mps 625 mmHg 94%
    03:00 +4°C° 0 mm 2 mps 625 mmHg 94%
    04:00 +4°C° 0.1 mm 2 mps 626 mmHg 92%
    05:00 +5°C° 0.1 mm 2 mps 626 mmHg 90%
    06:00 +5°C° 0.1 mm 2 mps 626 mmHg 88%
    07:00 +7°C° 0 mm 2 mps 627 mmHg 79%
    08:00 +9°C° 0 mm 2 mps 628 mmHg 70%
    09:00 +12°C° 0 mm 2 mps 629 mmHg 61%
    10:00 +13°C° 0 mm 2 mps 630 mmHg 59%
    11:00 +14°C° 0 mm 2 mps 630 mmHg 57%
    12:00 +15°C° 0 mm 2 mps 631 mmHg 55%
    13:00 +15°C° 0 mm 2 mps 631 mmHg 56%
    14:00 +16°C° 0 mm 2 mps 631 mmHg 57%
    15:00 +16°C° 0 mm 2 mps 631 mmHg 58%
    16:00 +15°C° 0 mm 2 mps 631 mmHg 65%
    17:00 +14°C° 0 mm 1 mps 630 mmHg 72%
    18:00 +13°C° 0 mm 1 mps 630 mmHg 79%
    19:00 +12°C° 0 mm 1 mps 630 mmHg 84%
    20:00 +11°C° 0 mm 1 mps 630 mmHg 88%
    21:00 +9°C° 0 mm 0 mps 630 mmHg 92%
    22:00 +8°C° 0 mm 0 mps 630 mmHg 93%
    23:00 +8°C° 0 mm 0 mps 629 mmHg 93%

    Tomorrow, 6 June, Saturday

    Time Temperature Precipitation Wind Pressure Humidity
    00:00 +7°C° 0 mm 0 mps 629 mmHg 94%
    01:00 +7°C° 0 mm 0 mps 629 mmHg 94%
    02:00 +7°C° 0 mm 0 mps 629 mmHg 94%
    03:00 +7°C° 0 mm 0 mps 629 mmHg 94%
    04:00 +8°C° 0 mm 0 mps 629 mmHg 92%
    05:00 +9°C° 0 mm 0 mps 630 mmHg 90%
    06:00 +10°C° 0 mm 0 mps 630 mmHg 88%
    07:00 +12°C° 0 mm 1 mps 630 mmHg 82%
    08:00 +14°C° 0 mm 1 mps 631 mmHg 75%
    09:00 +15°C° 0 mm 2 mps 632 mmHg 68%
    10:00 +15°C° 0.3 mm 2 mps 631 mmHg 72%
    11:00 +15°C° 0.3 mm 2 mps 631 mmHg 75%
    12:00 +15°C° 0.3 mm 2 mps 631 mmHg 78%
    13:00 +15°C° 0.8 mm 2 mps 630 mmHg 81%
    14:00 +14°C° 0.8 mm 2 mps 630 mmHg 85%
    15:00 +14°C° 0.8 mm 2 mps 630 mmHg 88%
    16:00 +13°C° 1.2 mm 2 mps 629 mmHg 90%
    17:00 +13°C° 1.2 mm 2 mps 629 mmHg 92%
    18:00 +12°C° 1.2 mm 2 mps 628 mmHg 94%
    19:00 +12°C° 2.7 mm 1 mps 629 mmHg 95%
    20:00 +11°C° 2.7 mm 1 mps 629 mmHg 96%
    21:00 +11°C° 2.7 mm 1 mps 629 mmHg 97%
    22:00 +10°C° 0.8 mm 1 mps 629 mmHg 97%
    23:00 +10°C° 0.8 mm 1 mps 628 mmHg 97%

    Day after tomorrow, 7 June, Sunday

    Time Temperature Precipitation Wind Pressure Humidity
    00:00 +10°C° 0.8 mm 1 mps 628 mmHg 97%
    01:00 +10°C° 1.1 mm 1 mps 628 mmHg 97%
    02:00 +9°C° 1.1 mm 1 mps 628 mmHg 96%
    03:00 +9°C° 1.1 mm 1 mps 628 mmHg 96%
    04:00 +9°C° 1.2 mm 1 mps 628 mmHg 97%
    05:00 +9°C° 1.2 mm 1 mps 628 mmHg 97%
    06:00 +9°C° 1.2 mm 1 mps 628 mmHg 97%
    07:00 +9°C° 1.2 mm 1 mps 628 mmHg 97%
    08:00 +9°C° 1.2 mm 1 mps 629 mmHg 97%
    09:00 +8°C° 1.2 mm 2 mps 629 mmHg 97%
    10:00 +8°C° 2 mm 2 mps 629 mmHg 96%
    11:00 +9°C° 2 mm 1 mps 629 mmHg 96%
    12:00 +8°C° 2 mm 1 mps 629 mmHg 96%
    13:00 +8°C° 1.6 mm 1 mps 628 mmHg 96%
    14:00 +7°C° 1.6 mm 2 mps 628 mmHg 96%
    15:00 +6°C° 1.6 mm 2 mps 628 mmHg 97%
    16:00 +6°C° 1.3 mm 2 mps 628 mmHg 96%
    17:00 +7°C° 1.3 mm 1 mps 628 mmHg 95%
    18:00 +7°C° 1.3 mm 1 mps 628 mmHg 95%
    19:00 +6°C° 0.4 mm 1 mps 628 mmHg 95%
    20:00 +6°C° 0.4 mm 1 mps 629 mmHg 95%
    21:00 +6°C° 0.4 mm 1 mps 629 mmHg 95%
    22:00 +6°C° 0 mm 1 mps 629 mmHg 95%
    23:00 +6°C° 0 mm 1 mps 629 mmHg 95%

    8 June, Monday

    Time Temperature Precipitation Wind Pressure Humidity
    00:00 +6°C° 0 mm 1 mps 629 mmHg 95%
    01:00 +5°C° 0 mm 1 mps 629 mmHg 95%
    02:00 +5°C° 0 mm 1 mps 628 mmHg 96%
    03:00 +5°C° 0 mm 1 mps 628 mmHg 96%
    04:00 +5°C° 0 mm 1 mps 628 mmHg 95%
    05:00 +5°C° 0 mm 1 mps 629 mmHg 94%
    06:00 +5°C° 0 mm 1 mps 629 mmHg 92%
    07:00 +6°C° 0 mm 2 mps 629 mmHg 80%
    08:00 +8°C° 0 mm 2 mps 630 mmHg 67%
    09:00 +10°C° 0 mm 2 mps 631 mmHg 55%
    10:00 +12°C° 0 mm 2 mps 631 mmHg 52%
    11:00 +13°C° 0 mm 2 mps 632 mmHg 49%
    12:00 +14°C° 0 mm 2 mps 632 mmHg 46%
    13:00 +13°C° 0.2 mm 2 mps 631 mmHg 52%
    14:00 +13°C° 0.2 mm 2 mps 631 mmHg 58%
    15:00 +12°C° 0.2 mm 2 mps 631 mmHg 64%
    16:00 +10°C° 0.4 mm 2 mps 631 mmHg 71%
    17:00 +9°C° 0.4 mm 2 mps 630 mmHg 79%
    18:00 +9°C° 0.4 mm 1 mps 630 mmHg 87%
    19:00 +8°C° 0.3 mm 1 mps 630 mmHg 89%
    20:00 +8°C° 0.3 mm 1 mps 630 mmHg 92%
    21:00 +7°C° 0.3 mm 1 mps 631 mmHg 94%
    22:00 +6°C° 0.2 mm 1 mps 631 mmHg 94%
    23:00 +6°C° 0.2 mm 1 mps 631 mmHg 94%

    9 June, Tuesday

    Time Temperature Precipitation Wind Pressure Humidity
    00:00 +6°C° 0.2 mm 1 mps 630 mmHg 94%
    01:00 +5°C° 0 mm 1 mps 630 mmHg 94%
    02:00 +5°C° 0 mm 1 mps 630 mmHg 94%
    03:00 +3°C° 0 mm 2 mps 630 mmHg 94%
    04:00 +4°C° 0 mm 2 mps 630 mmHg 91%
    05:00 +5°C° 0 mm 2 mps 630 mmHg 89%
    06:00 +5°C° 0 mm 2 mps 631 mmHg 86%
    07:00 +7°C° 0 mm 2 mps 632 mmHg 75%
    08:00 +9°C° 0 mm 2 mps 633 mmHg 64%
    09:00 +13°C° 0 mm 2 mps 633 mmHg 53%
    10:00 +13°C° 0.1 mm 2 mps 634 mmHg 54%
    11:00 +14°C° 0.1 mm 2 mps 634 mmHg 55%
    12:00 +14°C° 0.1 mm 2 mps 634 mmHg 56%
    13:00 +14°C° 0.6 mm 2 mps 633 mmHg 64%
    14:00 +13°C° 0.6 mm 2 mps 633 mmHg 71%
    15:00 +12°C° 0.6 mm 2 mps 633 mmHg 78%
    16:00 +12°C° 0.4 mm 2 mps 633 mmHg 81%
    17:00 +10°C° 0.4 mm 2 mps 633 mmHg 84%
    18:00 +9°C° 0.4 mm 2 mps 632 mmHg 87%
    19:00 +8°C° 0.1 mm 2 mps 633 mmHg 89%
    20:00 +7°C° 0.1 mm 2 mps 633 mmHg 91%
    21:00 +6°C° 0.1 mm 2 mps 633 mmHg 93%
    22:00 +6°C° 0 mm 2 mps 633 mmHg 93%
    23:00 +6°C° 0 mm 1 mps 633 mmHg 93%

    10 June, Wednesday

    Time Temperature Precipitation Wind Pressure Humidity
    00:00 +6°C° 0 mm 1 mps 633 mmHg 93%
    01:00 +6°C° 0 mm 1 mps 632 mmHg 93%
    02:00 +5°C° 0 mm 2 mps 632 mmHg 93%
    03:00 +4°C° 0 mm 2 mps 632 mmHg 93%
    04:00 +6°C° 0 mm 1 mps 632 mmHg 92%
    05:00 +7°C° 0 mm 1 mps 633 mmHg 91%
    06:00 +7°C° 0 mm 1 mps 633 mmHg 90%
    07:00 +10°C° 0 mm 1 mps 634 mmHg 79%
    08:00 +12°C° 0 mm 1 mps 635 mmHg 69%
    09:00 +14°C° 0 mm 1 mps 635 mmHg 59%
    10:00 +14°C° 0 mm 1 mps 635 mmHg 60%
    11:00 +14°C° 0 mm 1 mps 635 mmHg 62%
    12:00 +14°C° 0 mm 2 mps 635 mmHg 63%
    13:00 +14°C° 0.2 mm 2 mps 635 mmHg 66%
    14:00 +14°C° 0.2 mm 1 mps 634 mmHg 70%
    15:00 +14°C° 0.2 mm 1 mps 634 mmHg 73%
    16:00 +13°C° 0.3 mm 1 mps 634 mmHg 77%
    17:00 +13°C° 0.3 mm 1 mps 633 mmHg 82%
    18:00 +12°C° 0.3 mm 1 mps 633 mmHg 86%
    19:00 +11°C° 0.1 mm 1 mps 633 mmHg 89%
    20:00 +9°C° 0.1 mm 0 mps 633 mmHg 91%
    21:00 +8°C° 0.1 mm 0 mps 633 mmHg 94%
    22:00 +7°C° 0 mm 0 mps 632 mmHg 94%
    23:00 +7°C° 0 mm 0 mps 632 mmHg 94%
    Show more